Flag Weather past 2 weeks in Wiesbaden, Hesse, Germany

Now
48 °F

Fog.


Feels Like: 48 °F
Forecast: 50 / 62 °F
Wind: No wind

Location: Wiesbaden Airport

Current Time: Oct 31, 2014 at 6:49:46 AM

Latest Report: Oct 31, 2014 at 5:58 AM


Visibility: 5 mi

Pressure: 30.29 "Hg

Humidity: 100%

Dew point: 48 °F

Location of WiesbadenLocation

Historic Weather in Wiesbaden — Graph

°F

Wiesbaden temperature yesterday

Maximum temperature yesterday: 55 °F (at 1:58 PM)
Minimum temperature yesterday: 48 °F (at 12:04 AM)
Average temperature yesterday: 52 °F

Past Weeks' High & Low Weather Summary

 TemperatureHumidityPressure
High72 °F (Oct 19, 3:58 PM)100% (Oct 16, 6:58 AM)30.36 "Hg (Oct 16, 6:58 AM)
Low39 °F (Oct 24, 3:58 AM)64% (Oct 20, 1:58 PM)29.58 "Hg (Oct 21, 5:58 PM)
Average52 °F90%30.12 "Hg
* Reported Oct 16 6:58 AM — Oct 31 5:58 AM, Wiesbaden, Weather by CustomWeather, © 2014

Note: Actual official high and low records may vary slightly from our data, if they occured in-between our weather recording intervals... More about our weather records

Advertising

Wiesbaden weather history for previous 24 hours

 ConditionsComfort  
Time TempWeatherWind HumidityBarometerVisibility
5:58 AM
Oct 31
48 °FFog.No wind100%30.29 "Hg5 mi
5:01 AM48 °FFog.No wind100%30.29 "Hg2 mi
4:58 AM48 °FFog.No wind100%30.30 "Hg2 mi
4:03 AM50 °FFog.No wind100%30.29 "Hg2 mi
3:58 AM50 °FFog.No wind100%30.30 "Hg1 mi
3:03 AM52 °FFog.No wind100%30.29 "Hg2 mi
2:58 AM52 °FFog.No wind100%30.30 "Hg2 mi
1:58 AM54 °FFog.No wind100%30.31 "Hg4 mi
12:58 AM54 °FFog.No wind100%30.31 "Hg4 mi
11:58 PM
Oct 30
54 °FFog.No wind100%30.31 "Hg5 mi
10:58 PM54 °FFog.2 mph100%30.31 "Hg6 mi
9:58 PM54 °FFog.2 mph100%30.31 "Hg4 mi
8:58 PM54 °FFog.No wind100%30.31 "Hg5 mi
7:58 PM53 °FFog.No wind99%30.30 "Hg4 mi
6:58 PM54 °FFog.No wind98%30.30 "Hg5 mi
5:58 PM55 °FOvercast.2 mph96%30.30 "HgN/A
4:58 PM55 °FFog.No wind93%30.29 "Hg5 mi
3:58 PM55 °FFog.No wind94%30.28 "Hg2 mi
2:59 PM55 °FFog.1 mph94%30.26 "Hg2 mi
2:58 PM55 °FFog.No wind92%30.28 "Hg2 mi
1:58 PM55 °FFog.No wind88%30.28 "Hg2 mi
12:58 PM54 °FFog.1 mph94%30.29 "Hg1 mi
12:02 PM54 °FFog.3 mph94%30.27 "Hg2 mi
11:04 AM52 °FFog.2 mph100%30.27 "Hg2 mi
10:58 AM52 °FFog.1 mph95%30.28 "Hg2 mi
9:58 AM52 °FFog.1 mph94%30.27 "Hg1 mi
8:58 AM50 °FFog.3 mph100%30.26 "Hg1 mi
7:59 AM50 °FFog.2 mph100%30.24 "Hg1 mi
7:58 AM50 °FFog.2 mph100%30.24 "Hg1 mi
6:58 AM50 °FFog.No wind100%30.22 "Hg2 mi
Weather by CustomWeather, © 2014

See weather overviewHow to use our weather pages